Location: Unspecified
(37.6100°N, 2.7800°W)
Time: 19:15:45
(UTC+00:00)

ISS - Visible Passes

Search period start: 18 November 2017 00:00
Search period end: 28 November 2017 00:00
Orbit: 402 x 407 km, 51.6° (Epoch: 19 November)

Date Brightness Start Highest point End Pass type
(mag) Time Alt. Az. Time Alt. Az. Time Alt. Az.
18 Nov -1.0 04:31:22 18° E 04:31:22 18° E 04:32:30 10° E visible
18 Nov -2.4 06:04:03 15° W 06:05:54 23° SW 06:08:32 10° S visible
19 Nov -3.1 05:14:22 41° S 05:14:22 41° S 05:16:55 10° SSE visible
20 Nov -0.4 04:24:45 10° SE 04:24:45 10° SE 04:24:49 10° SE visible
24 Nov -1.1 19:04:00 10° SSW 19:04:37 14° SSW 19:04:37 14° SSW visible
25 Nov -2.2 18:12:24 10° S 18:14:53 21° SE 18:14:53 21° SE visible
26 Nov -1.4 17:22:16 10° SE 17:22:48 10° SE 17:23:20 10° ESE visible
26 Nov -2.4 18:55:34 10° WSW 18:57:44 37° WSW 18:57:44 37° WSW visible
27 Nov -3.6 18:03:17 10° SW 18:06:30 56° SE 18:07:48 31° ENE visible
